Find Starlink 33916

NORAD ID: 63792 Int'l Des: 2025-091 Owner: SPXS Country: US Constellation: starlink operational
LEOCIRCULAR

リアルタイム位置

3D地球を読み込み中...

Starlink 33916について

説明を読み込み中...

次回通過

Passes for default location (London). Set your location on the main map for personalized predictions.

高度履歴

Loading altitude history...

軌道要素

1 63792U 25091T 26125.60596510 .00033103 00000-0 12068-2 0 9991
2 63792 43.0024 91.3663 0000980 274.7389 85.3351 15.27586850 57607
Epoch: May 5, 2026 • Age: 12 hours

現在のステータス

高度 483.9 km
速度 7.63 km/s
衛星直下点 29.24°N, 23.67°W
打ち上げ日 May 2, 2025
運用期間 1 years
タイプ internet

技術仕様

分類 Payload
質量 575.00 kg
乾燥質量 530.00 kg
総質量 575.00 kg
長さ 0.30 m
直径 4.10 m
スパン 29.00 m
形状 Box + pan
製造者 SPXS
バスタイプ Starlink V2MO
フェーズステータス In Orbit
所有者/国 SPXS/US

Most Searched